Flag for Germany Weather past 2 weeks in Bonn, North Rhine-Westphalia, Germany

Now
68 °F

Thundershowers. Partly sunny.


Feels Like: 68 °F
Forecast: 60 / 76 °F
Wind: 5 mph from East

Location: Bonn-Hangelar

Current Time: Sep 18, 2014 at 6:33:09 PM

Latest Report: Sep 18, 2014 at 6:00 PM


Visibility: 6 mi

Pressure: 29.80 "Hg

Humidity: 90%

Dew point: 65 °F

Location of BonnLocation

Historic Weather in Bonn — Graph

°F

Bonn temperature yesterday

Maximum temperature yesterday: 75 °F (at 3:00 PM)
Minimum temperature yesterday: 56 °F (at 7:00 AM)
Average temperature yesterday: 65 °F

Past Weeks' High & Low Weather Summary

 TemperatureHumidityPressure
High75 °F (Sep 17, 3:00 PM)99% (Sep 13, 10:00 AM)30.27 "Hg (Sep 13, 10:00 AM)
Low47 °F (Sep 12, 7:00 AM)52% (Sep 10, 3:00 PM)29.81 "Hg (Sep 18, 5:00 PM)
Average61 °F81%30.05 "Hg
* Reported Sep 3 5:00 PM — Sep 18 5:00 PM, Bonn, Weather by CustomWeather, © 2014

Note: Actual official high and low records may vary slightly from our data, if they occured in-between our weather recording intervals... More about our weather records

Advertising

Bonn weather history for previous 24 hours

 ConditionsComfort  
Time TempWeatherWind HumidityBarometerVisibility
5:00 PM
Sep 18
71 °FOvercast.5 mph85%29.81 "Hg7 mi
4:00 PM68 °FPartly sunny.5 mph90%29.82 "Hg19 mi
3:00 PM66 °FOvercast.6 mph90%29.82 "Hg19 mi
2:00 PM64 °FOvercast.3 mph92%29.84 "Hg25 mi
1:00 PM63 °FOvercast.1 mph93%29.85 "Hg28 mi
12:00 PM65 °FSprinkles. Overcast.2 mph88%29.85 "Hg12 mi
11:00 AM65 °FLight rain. Overcast.3 mph87%29.85 "Hg12 mi
10:00 AM64 °FSprinkles. Overcast.5 mph90%29.83 "Hg16 mi
9:00 AM63 °FOvercast.3 mph95%29.83 "Hg31 mi
8:00 AM67 °FOvercast.1 mph69%29.82 "Hg25 mi
7:00 AM63 °FLight rain. Overcast.3 mph89%29.84 "Hg12 mi
6:00 AM65 °FOvercast.6 mph73%29.84 "Hg22 mi
5:00 AM59 °FPassing clouds.3 mph89%29.83 "Hg8 mi
4:00 AM61 °FOvercast.2 mph85%29.84 "Hg9 mi
3:00 AM61 °FPassing clouds.3 mph83%29.83 "Hg9 mi
2:00 AM62 °FPassing clouds.3 mph81%29.85 "Hg13 mi
1:00 AM61 °FOvercast.3 mph84%29.85 "Hg11 mi
12:00 AM64 °FOvercast.5 mph79%29.85 "Hg12 mi
11:00 PM
Sep 17
65 °FOvercast.3 mph81%29.85 "Hg11 mi
10:00 PM65 °FOvercast.3 mph79%29.85 "Hg10 mi
9:00 PM64 °FPassing clouds.5 mph77%29.85 "Hg19 mi
8:00 PM67 °FPassing clouds.5 mph70%29.85 "Hg19 mi
7:00 PM72 °FScattered clouds.5 mph58%29.83 "Hg19 mi
6:00 PM75 °FPassing clouds.6 mph53%29.83 "Hg19 mi
Weather by CustomWeather, © 2014

See weather overviewHow to use our weather pages